الصفحة الرئيسية
METAR-TAF:

METAR-TAF

مطار :

Cloncurry, أستراليا

دائرة عرض: 20-40-07S, خط طول: 140-30-16E, ارتفاع: 188 متر

مراقبة الطقس الحالي

تاريخ ووقت الإصدار 25 دقيقة قبل الساعة 20:00UTC
ريح 10 عقدة من الجنوب
درجة الحرارة 21°درجة مئوية
الرطوبة 35%
ضغط 1015 hPa
الرؤية 10 كم أو أكثر

METAR: YCCY 172000Z AUTO 19010KT 9999 // NCD 21/05 Q1015

زمن: 06:25 (20:25 UTC)


TAF: مفقودة

أرصاد الطقس والتوقعات من أكثر من 4000 مطار (تقارير الطقس للمطار METAR والتنبؤ بالطقس بالمطارTAF).

المحطات المتاحة هي النقط الصفراء والحمراء على الخريطة.

حرك المؤشر فوق النقطة لمعرفة اسم المحطة.

ثم انقر لمعرفة أرصاد وتوقعات الطقس.

لتغيير الخارطة: اضغط على الأزرار الخضراء مع رمز الصليب الأسود للتكبير. على الزر الأخضر مع شرطة للتصغير، أو على الأسهم الخضراء للخرائط المجاورة.


METAR-TAF: